Location: Choisy
(48.7685°N, 2.4187°E)
Time: 12:38:24
(UTC+00:00)

ATLAS 3B R/B - Pass Details

Date: 07 June 2022
Orbit: 976 x 1218 km, 63.8° (Epoch: 20 June)

Event Time Altitude Azimuth Distance (km) Brightness Sun altitude
Rises 20:42:57 0° 312° (NW) 3,995 8.2 -7.2°
Reaches altitude 10° 20:46:10 10° 300° (WNW) 3,068 6.5 -7.6°
Maximum altitude 20:51:45 24° 250° (WSW) 2,242 4.7 -8.2°
Drops below altitude 10° 20:57:28 10° 201° (SSW) 3,146 4.9 -8.8°
Sets 21:00:50 0° 188° (S) 4,119 5.4 -9.2°
